Vorticity
nan nan nan nan nan nan nan nan nan nan nan nan nan nan nan nan nan nan nan nan nan nan nan nan nan nan nan nan nan nan nan nan nan nan nan nan nan nan nan nan nan nan nan
nan 8 8 8 8 8 8 8 8 8 8 8 9 7 6 6 7 8 8 8 7 8 9 9 10 9 8 10 9 9 9 9 9 8 10 9 9 11 7 9 13 9 nan
nan 8 8 7 8 8 8 8 9 8 8 8 9 8 6 6 7 8 8 8 8 9 8 9 8 9 9 9 9 10 10 9 9 11 10 10 10 9 9 12 10 11 nan
nan 8 7 8 8 8 8 8 8 8 8 8 9 9 7 6 6 7 8 8 9 9 9 9 9 7 7 10 10 9 10 10 10 11 11 9 9 10 11 9 10 10 nan
nan 8 8 8 9 9 8 8 8 8 8 8 8 8 7 6 7 8 7 7 8 9 10 10 8 7 9 12 9 7 10 11 10 11 10 9 8 8 10 11 10 8 nan
nan 8 8 8 8 8 8 9 8 8 8 9 9 9 7 8 9 6 5 8 8 8 9 10 9 8 9 8 6 12 12 8 9 9 7 7 9 10 9 10 9 8 nan
nan 9 9 8 8 9 8 8 8 8 8 8 9 9 9 9 7 6 5 6 7 8 10 10 9 9 8 6 10 12 12 12 11 6 8 9 9 9 10 8 9 10 nan
nan 8 8 8 8 9 9 8 8 9 9 9 9 10 9 9 8 6 3 5 8 8 9 9 9 8 9 10 11 10 10 11 12 11 9 8 7 7 10 11 11 12 nan
nan 8 9 8 8 8 7 8 10 9 9 9 10 10 9 9 9 7 4 6 7 8 9 8 9 7 5 11 12 10 10 10 9 10 12 11 9 10 13 15 11 11 nan
nan 9 9 9 9 8 9 8 8 10 9 10 10 9 9 10 9 8 9 6 8 9 9 12 8 4 6 10 12 11 10 8 9 12 13 13 14 12 13 15 12 10 nan
nan 10 9 9 10 9 8 9 10 10 9 10 8 9 8 9 8 8 9 8 9 9 10 10 6 5 8 10 13 11 7 10 13 13 12 10 9 13 14 9 11 12 nan
nan 10 10 8 8 12 10 8 10 9 9 8 8 8 9 10 9 9 7 9 9 9 10 9 3 6 12 11 7 7 14 15 12 12 11 10 10 10 9 9 11 15 nan
nan 10 10 9 9 10 10 8 9 9 9 9 8 9 10 10 10 9 8 9 8 7 8 9 8 9 12 11 10 15 15 12 11 11 10 10 10 9 10 13 12 14 nan
nan 9 10 10 10 8 8 10 9 9 9 9 9 9 10 10 10 10 10 9 7 9 8 11 13 11 11 10 11 13 12 11 11 10 10 10 11 11 11 11 13 12 nan
nan 10 9 11 10 8 10 11 13 11 11 10 10 11 11 11 14 11 8 7 7 9 9 10 9 10 10 11 10 10 10 10 12 11 10 10 11 11 11 11 12 12 nan
nan 8 10 11 11 10 9 3 9 21 14 10 12 11 9 15 17 10 8 7 7 7 9 9 9 9 9 10 9 10 10 10 10 11 10 11 11 10 11 11 11 12 nan
nan 7 8 10 11 10 9 10 4 9 13 13 11 9 10 12 10 9 9 9 7 8 8 9 9 9 10 10 10 9 10 9 11 12 10 10 11 10 11 11 11 11 nan
nan 9 9 9 9 10 11 9 10 10 10 9 10 12 11 13 12 9 8 6 7 8 7 8 9 9 10 10 10 10 10 10 10 10 11 11 11 11 11 12 10 10 nan
nan 10 10 11 12 11 11 10 10 10 10 9 10 12 16 15 10 9 5 4 9 9 8 8 9 9 10 10 10 10 11 12 11 10 11 12 11 10 11 11 12 11 nan
nan 11 12 10 11 11 10 11 11 11 10 9 9 11 10 10 9 9 9 10 10 10 9 8 9 10 10 10 10 11 10 11 11 11 12 12 11 11 11 11 13 11 nan
nan 13 11 8 11 11 10 11 10 11 11 10 10 13 12 7 9 10 10 10 10 10 10 8 8 10 10 10 10 10 10 11 10 10 11 12 12 11 12 14 13 12 nan
nan 13 11 10 10 12 11 11 12 11 11 10 10 13 11 8 11 11 10 11 11 11 11 9 8 10 11 10 10 10 10 11 10 10 11 12 12 11 12 14 13 11 nan
nan 12 10 11 11 11 12 12 11 11 11 12 11 11 10 10 12 11 11 11 11 11 10 9 8 9 10 10 11 11 10 10 10 11 11 11 12 11 12 13 12 12 nan
nan 12 10 10 11 11 11 11 12 12 10 11 11 11 11 12 12 11 11 11 11 11 11 9 9 10 10 10 10 10 10 9 10 10 12 13 11 11 14 13 12 12 nan
nan 12 12 11 11 10 11 12 11 11 10 11 11 12 12 11 11 12 12 11 11 11 11 9 10 10 8 9 10 9 10 10 11 13 14 13 13 13 13 13 12 11 nan
nan nan nan nan nan nan nan nan nan nan nan nan nan nan nan nan nan nan nan nan nan nan nan nan nan nan nan nan nan nan nan nan nan nan nan nan nan nan nan nan nan nan nan
CAPE
0 0 0 0 0 0 0 0 0 0 0 0 0 0 0 0 0 0 0 0 0 0 0 0 0 0 0 0 0 1 3 5 7 2 8 7 8 10 8 9 14 11 4
0 0 0 0 0 0 0 0 0 0 0 0 0 0 0 0 0 0 0 0 0 0 0 0 0 0 0 1 1 3 5 9 11 4 7 12 13 10 16 17 10 8 15
0 0 0 0 0 0 0 0 0 0 0 0 0 0 0 0 0 0 0 0 0 0 0 0 0 0 0 1 3 4 7 6 10 15 17 13 15 22 21 15 15 17 11
0 0 0 0 0 0 0 0 0 0 0 0 0 0 0 0 0 0 0 0 0 0 0 0 0 1 1 3 1 6 5 9 8 7 11 16 20 14 25 35 25 26 20
0 0 0 0 0 0 0 0 0 0 0 0 0 0 0 0 0 0 0 0 0 0 0 0 0 0 0 1 6 4 5 9 5 10 10 9 19 24 30 36 39 49 29
0 0 0 0 0 0 0 0 0 0 0 0 0 0 0 0 0 0 0 0 0 0 0 0 0 0 0 0 0 1 4 11 12 16 12 16 7 21 28 45 50 48 33
0 0 0 0 0 0 0 0 0 0 0 0 0 0 0 0 0 0 0 0 0 0 0 0 0 0 3 5 1 1 0 1 2 9 12 15 23 24 33 32 30 44 43
0 0 0 0 0 0 0 0 0 0 0 0 0 0 0 0 0 0 0 0 0 0 0 0 0 1 2 9 5 4 4 3 5 7 8 11 11 14 17 21 26 36 27
0 0 0 0 0 0 0 0 0 0 0 0 0 0 0 0 0 0 0 0 0 0 0 0 0 1 1 3 3 5 6 5 3 5 8 8 7 4 4 19 24 20 41
0 0 0 0 0 0 0 0 0 0 0 0 0 0 0 0 0 0 0 0 0 0 0 0 0 0 0 5 7 7 5 21 13 11 11 9 6 2 0 6 14 13 22
0 0 0 0 0 0 0 0 0 0 0 0 0 0 0 0 0 0 0 0 0 0 0 0 0 0 0 0 0 9 11 13 10 18 22 24 19 9 14 14 9 14 14
0 0 0 0 0 0 0 0 0 0 0 0 0 0 0 0 0 0 0 0 0 0 0 0 1 0 0 0 1 0 0 2 17 24 25 26 30 19 18 19 22 44 52
0 0 0 0 0 0 0 0 0 0 0 0 0 0 0 0 0 0 0 0 0 0 0 0 0 0 0 0 0 0 0 13 22 26 28 31 35 19 15 26 27 22 24
0 0 0 0 0 0 0 0 0 0 0 0 0 0 0 0 0 0 0 0 0 0 0 0 0 0 0 1 4 5 17 17 18 19 19 18 17 13 19 39 24 24 11
0 0 0 0 0 0 0 0 0 0 0 0 0 0 0 0 0 0 0 0 0 0 0 2 2 5 5 8 9 9 11 14 15 25 18 12 13 12 14 38 14 10 6
0 0 0 0 0 0 0 0 0 0 0 0 0 0 0 0 0 0 0 0 0 0 0 0 5 8 5 5 6 10 15 14 18 19 8 6 9 10 13 25 11 6 5
0 0 0 0 0 0 0 0 0 0 0 0 0 0 0 0 0 0 0 0 0 0 0 1 4 9 8 5 12 17 19 18 17 12 8 4 4 6 13 23 18 9 2
0 0 0 0 0 0 0 0 0 0 0 0 0 0 0 0 0 0 0 0 0 0 0 0 2 4 6 11 7 14 19 19 21 13 7 7 10 6 8 20 30 11 2
0 0 0 0 0 0 0 0 0 0 0 0 0 0 0 0 0 0 0 0 0 0 0 0 1 3 6 4 16 17 19 24 23 23 10 15 22 8 8 12 31 6 5
0 0 0 0 0 0 0 0 0 0 0 0 0 0 0 0 0 3 0 0 0 0 0 1 1 5 11 16 17 20 20 23 22 12 19 23 21 10 8 13 29 16 11
0 0 0 0 0 0 0 0 0 0 0 0 0 0 0 0 0 0 0 0 1 1 3 1 2 6 12 14 15 16 15 18 18 6 10 10 19 6 10 15 23 12 8
0 0 0 0 0 0 0 0 0 0 0 0 0 0 0 0 0 0 0 1 5 2 2 3 4 7 14 16 17 16 13 24 19 6 7 7 7 6 4 13 7 10 7
0 0 0 0 0 0 0 0 0 0 0 0 0 0 0 1 1 0 0 8 2 3 4 3 6 8 7 12 16 12 14 13 12 10 8 8 9 13 2 5 9 10 5
0 0 0 0 0 0 0 0 0 0 0 0 0 0 1 2 3 2 2 5 6 7 6 1 1 5 6 14 15 10 11 9 8 9 7 6 7 3 3 6 9 1 2
0 0 0 0 0 0 0 0 0 0 0 0 1 0 0 2 3 6 5 5 3 5 1 0 4 8 8 4 5 7 6 3 5 1 3 3 8 15 6 5 4 1 0
0 0 0 0 0 0 0 0 0 0 0 1 1 1 1 2 2 5 2 2 1 1 1 1 7 8 4 7 4 2 2 2 3 0 2 6 5 1 4 3 0 2 1